This is the latest recevied weather packets stored in our database for station/object KN4MGS. If no packets are shown the sender has not sent any weather packets the latest 10 day(s).
| Time | Temp. | Humidity | Pressure | Rain* | Wind** | Luminosity | Snow |
|---|---|---|---|---|---|---|---|
| 1777928767 | 27.22° C | 34% | 1017.3 hPa | 0 mm | - | 390 W/m² | - |
| 1777928463 | 26.67° C | 33% | 1017.4 hPa | 0 mm | - | 449 W/m² | - |
| 1777928161 | 26.67° C | 34% | 1017.2 hPa | 0 mm | - | 379 W/m² | - |
| 1777927858 | 26.67° C | 32% | 1017.2 hPa | 0 mm | - | 388 W/m² | - |
| 1777927556 | 26.67° C | 35% | 1017.5 hPa | 0 mm | - | 443 W/m² | - |
| 1777927255 | 26.67° C | 35% | 1017.5 hPa | 0 mm | - | 405 W/m² | - |
| 1777926953 | 26.67° C | 34% | 1017.4 hPa | 0 mm | - | 394 W/m² | - |
| 1777926650 | 27.22° C | 36% | 1017.6 hPa | 0 mm | - | 511 W/m² | - |
| 1777926345 | 26.67° C | 35% | 1017.5 hPa | 0 mm | - | 434 W/m² | - |
| 1777926043 | 26.67° C | 33% | 1017.8 hPa | 0 mm | - | 542 W/m² | - |
| 1777925739 | 26.67° C | 33% | 1017.7 hPa | 0 mm | - | 531 W/m² | - |
| 1777925438 | 26.67° C | 32% | 1017.9 hPa | 0 mm | - | 588 W/m² | - |
| 1777925133 | 26.67° C | 33% | 1017.9 hPa | 0 mm | - | 602 W/m² | - |
| 1777924831 | 26.67° C | 32% | 1017.9 hPa | 0 mm | - | 556 W/m² | - |
| 1777924526 | 26.67° C | 33% | 1017.9 hPa | 0 mm | - | 556 W/m² | - |
| 1777924223 | 26.67° C | 36% | 1018 hPa | 0 mm | - | 593 W/m² | - |
| 1777923920 | 26.67° C | 34% | 1017.9 hPa | 0 mm | - | 635 W/m² | - |
| 1777923615 | 26.67° C | 36% | 1018.1 hPa | 0 mm | - | 646 W/m² | - |
| 1777923312 | 27.78° C | 33% | 1017.9 hPa | 0 mm | - | 672 W/m² | - |
| 1777923011 | 26.67° C | 34% | 1018.1 hPa | 0 mm | - | 672 W/m² | - |
| 1777922709 | 26.67° C | 35% | 1018.3 hPa | 0 mm | - | 688 W/m² | - |
| 1777922407 | 26.67° C | 32% | 1018.3 hPa | 0 mm | - | 691 W/m² | - |
| 1777922104 | 26.67° C | 33% | 1018.5 hPa | 0 mm | - | 588 W/m² | - |
| 1777921800 | 27.22° C | 34% | 1018.5 hPa | 0 mm | - | 668 W/m² | - |
| 1777921496 | 26.67° C | 34% | 1018.7 hPa | 0 mm | - | 706 W/m² | - |
* Rain latest hour (hover to see other rain measurements)
** Current wind speed in m/s (hover to see current wind gust speed)